Kosmos-763

operational
NORAD ID: 8287 Int'l Des: 1975-086 Owner: GUKOSR Country: SU
LEOCIRCULAR

About Kosmos-763

Description loading...

Live Position

Loading 3D Globe...

Upcoming Passes

Altitude History

Altitude vs Time

uPlot chart will show altitude changes over time

Two-Line Element Set

1 8287U 75086C 25277.59623016 -.00000020 00000-0 -28418-4 0 9997
2 8287 74.0099 205.7280 0022172 119.4121 55.0336 12.43558979271985
Epoch: Oct 4, 2025 • Age: 13 hours

Current Status

Altitude 1492.6 km
Velocity 7.12 km/s
Sub-Earth Point 41.79°N, 158.88°E
Type other

Large Constellations

Loading constellations...